Location: Sweet Grass
(48.9965°N, 111.9649°W)
Time: 06:41:42
(UTC+00:00)

N. Korean satellite - Pass Details

Date: 07 December 2022
Orbit: 407 x 442 km, 97.3° (Epoch: 04 February)

Event Time Altitude Azimuth Distance (km) Brightness Sun altitude
Rises 13:57:00 0° 359° (N) 2,515 10.0 -11.0°
Reaches altitude 10° 13:59:31 10° 340° (NNW) 1,626 8.8 -10.7°
Maximum altitude 14:01:56 18° 296° (WNW) 1,204 7.9 -10.3°
Drops below altitude 10° 14:04:20 10° 252° (WSW) 1,598 8.7 -9.9°
Sets 14:06:47 0° 232° (SW) 2,455 9.9 -9.6°
